Romeoville, IL

12:56 PM CDT on October 17, 2017 (GMT -0500)
Lewis University

Weather History for KLOT - November, 2013

Change the Weather History Date:

Tuesday, November 26, 2013

  Actual Average Record
Temperature  
Mean Temperature 25 °F 35 °F  
Max Temperature 35 °F 43 °F 63 °F (2006)
Min Temperature 15 °F 28 °F 13 °F (1996)
Degree Days  
Heating Degree Days 40 30  
Month to date heating degree days 701 609  
Since 1 July heating degree days 1173 1096  
Cooling Degree Days 0 0  
Month to date cooling degree days 0 0  
Year to date cooling degree days 950 862  
Moisture  
Dew Point 21 °F    
Average Humidity 73    
Maximum Humidity 87    
Minimum Humidity 54    
Precipitation  
Precipitation T in 0.12 in 1.12 in (2011)
Month to date precipitation 2.87 2.95  
Year to date precipitation 39.35 37.31  
Snow  
Snow T in 0.10 in 2.10 in (2002)
Month to date snowfall 0.9 0.6  
Since 1 July snowfall 0.9 0.6  
Since 1 September snowfall 0.9 0.6  
Snow Depth 0.00 in    
Sea Level Pressure  
Sea Level Pressure 30.07 in    
Wind  
Wind Speed 9 mph (WNW)    
Max Wind Speed 24 mph    
Max Gust Speed 30 mph    
Visibility 10 miles    
Events Snow    
T = Trace of Precipitation, MM = Missing Value Source: NWS Daily Summary

Daily Weather History Graph

Daily Weather History Graph

Search for Another Location

Airport or City:

Trip Planner

Search our weather history database for the weather conditions in past years. The results will help you decide how hot, cold, wet, or windy it might be!

Date:

Astronomy

Nov. 26, 2013 Rise Set
Actual Time 6:54 AM CST 4:24 PM CST
Civil Twilight 6:23 AM CST 4:55 PM CST
Nautical Twilight 5:49 AM CST 5:29 PM CST
Astronomical Twilight 5:16 AM CST 6:02 PM CST
Moon No Moon Rise 12:36 PM CST (11/26)
Length of Visible Light 10h 31m
Length of Day
9h 30m
Last Quarter, 41% of the Moon is Illuminated
Nov 26
Last Quarter
Dec 2
New
Dec 9
First Quarter
Dec 17
Full
Dec 25
Last Quarter

Hourly Weather History & Observations

Time (CST) Temp. Windchill Dew Point Humidity Pressure Visibility Wind Dir Wind Speed Gust Speed Precip Events Conditions
12:15 AM 25.3 °F 18.5 °F 21.6 °F 86% 30.08 in 10.0 mi SW 5.8 mph - N/A   Mostly Cloudy
12:35 AM 26.1 °F 19.4 °F 22.6 °F 87% 30.08 in 10.0 mi SSW 5.8 mph - N/A   Overcast
12:55 AM 27.1 °F 20.7 °F 23.5 °F 86% 30.09 in 10.0 mi SSW 5.8 mph - N/A   Overcast
1:15 AM 27.5 °F 20.2 °F 23.5 °F 85% 30.09 in 10.0 mi SSW 6.9 mph - N/A   Overcast
1:35 AM 28.4 °F 19.7 °F 23.7 °F 83% 30.08 in 10.0 mi SSW 9.2 mph - N/A   Overcast
1:55 AM 28.4 °F 19.1 °F 23.7 °F 83% 30.09 in 10.0 mi SSW 10.4 mph - N/A   Overcast
2:15 AM 28.4 °F 19.7 °F 23.5 °F 82% 30.09 in 10.0 mi SW 9.2 mph - N/A   Overcast
2:35 AM 28.6 °F 20.7 °F 23.0 °F 80% 30.08 in 10.0 mi SW 8.1 mph - N/A   Overcast
2:55 AM 28.9 °F 21.9 °F 23.2 °F 79% 30.08 in 10.0 mi SW 6.9 mph - N/A   Overcast
3:15 AM 29.1 °F 23.0 °F 23.2 °F 78% 30.08 in 10.0 mi WSW 5.8 mph - N/A   Overcast
3:35 AM 29.3 °F 23.2 °F 23.5 °F 79% 30.08 in 10.0 mi WSW 5.8 mph - N/A   Overcast
3:55 AM 29.3 °F 22.3 °F 23.5 °F 79% 30.07 in 10.0 mi WSW 6.9 mph - N/A   Overcast
4:15 AM 29.3 °F 23.2 °F 23.5 °F 79% 30.07 in 10.0 mi WSW 5.8 mph - N/A   Overcast
4:35 AM 29.3 °F 23.2 °F 23.5 °F 79% 30.07 in 10.0 mi SW 5.8 mph - N/A   Overcast
4:55 AM 29.3 °F 23.2 °F 23.7 °F 80% 30.07 in 10.0 mi SW 5.8 mph - N/A   Overcast
5:15 AM 29.3 °F 23.2 °F 23.9 °F 80% 30.07 in 10.0 mi SW 5.8 mph - N/A   Overcast
5:35 AM 29.3 °F 23.2 °F 23.9 °F 80% 30.07 in 10.0 mi SW 5.8 mph - N/A   Overcast
5:55 AM 29.7 °F 22.8 °F 23.9 °F 79% 30.06 in 10.0 mi WSW 6.9 mph - N/A   Overcast
6:15 AM 29.7 °F 22.0 °F 23.9 °F 79% 30.06 in 10.0 mi WSW 8.1 mph - N/A   Overcast
6:35 AM 29.7 °F 22.8 °F 24.3 °F 80% 30.07 in 10.0 mi WSW 6.9 mph - N/A   Overcast
6:55 AM 29.7 °F 24.7 °F 24.3 °F 80% 30.06 in 10.0 mi WSW 4.6 mph - N/A   Overcast
7:15 AM 29.3 °F 24.3 °F 24.4 °F 82% 30.04 in 10.0 mi West 4.6 mph - N/A   Overcast
7:35 AM 29.7 °F 24.7 °F 24.8 °F 82% 30.04 in 10.0 mi West 4.6 mph - N/A   Overcast
7:55 AM 29.8 °F 24.9 °F 24.6 °F 81% 30.05 in 10.0 mi WSW 4.6 mph - N/A   Overcast
8:15 AM 30.0 °F 25.2 °F 25.2 °F 82% 30.06 in 10.0 mi SW 4.6 mph - N/A   Overcast
8:35 AM 30.2 °F 24.3 °F 25.3 °F 82% 30.06 in 10.0 mi SW 5.8 mph - N/A   Overcast
8:55 AM 30.6 °F 25.8 °F 25.5 °F 82% 30.05 in 10.0 mi WSW 4.6 mph - N/A   Overcast
9:15 AM 30.9 °F 26.2 °F 25.7 °F 81% 30.05 in 10.0 mi West 4.6 mph - N/A   Overcast
9:35 AM 31.5 °F 26.8 °F 26.2 °F 81% 30.04 in 10.0 mi SW 4.6 mph - N/A   Overcast
9:55 AM 32.0 °F 28.7 °F 26.4 °F 80% 30.04 in 10.0 mi WSW 3.5 mph - N/A   Overcast
10:15 AM 32.7 °F 26.4 °F 27.3 °F 81% 30.04 in 10.0 mi WSW 6.9 mph - N/A   Overcast
10:35 AM 33.1 °F 26.1 °F 27.5 °F 80% 30.05 in 10.0 mi West 8.1 mph - N/A   Overcast
10:55 AM 33.8 °F 27.0 °F 27.9 °F 79% 30.05 in 10.0 mi West 8.1 mph - N/A   Overcast
11:15 AM 34.2 °F 28.2 °F 27.5 °F 77% 30.05 in 10.0 mi WNW 6.9 mph - N/A   Overcast
11:35 AM 34.3 °F 25.9 °F 26.8 °F 74% 30.02 in 10.0 mi WNW 11.5 mph - N/A   Overcast
11:55 AM 34.5 °F 26.7 °F 26.2 °F 72% 30.02 in 10.0 mi NW 10.4 mph - N/A   Overcast
12:15 PM 34.5 °F 26.7 °F 27.0 °F 74% 30.02 in 10.0 mi NNW 10.4 mph - N/A   Overcast
12:35 PM 34.2 °F 26.8 °F 26.1 °F 72% 30.03 in 10.0 mi NNW 9.2 mph - N/A   Overcast
12:55 PM 33.8 °F 25.8 °F 26.1 °F 73% 30.02 in 10.0 mi NNW 10.4 mph - N/A   Overcast
1:15 PM 33.3 °F 25.1 °F 25.5 °F 73% 30.02 in 10.0 mi NW 10.4 mph - N/A   Overcast
1:35 PM 32.9 °F 24.1 °F 24.4 °F 71% 30.02 in 10.0 mi NW 11.5 mph - N/A   Overcast
1:55 PM 32.5 °F 24.8 °F 24.4 °F 72% 30.01 in 10.0 mi NNW 9.2 mph - N/A   Overcast
2:15 PM 32.2 °F 21.8 °F 23.7 °F 71% 30.01 in 10.0 mi NNW 15.0 mph - N/A   Overcast
2:35 PM 32.0 °F 22.1 °F 23.0 °F 69% 30.02 in 10.0 mi North 13.8 mph - N/A   Overcast
2:55 PM 32.0 °F 21.6 °F 21.0 °F 64% 30.02 in 10.0 mi North 15.0 mph 18.4 mph N/A   Overcast
3:15 PM 31.8 °F 22.8 °F 19.6 °F 61% 30.03 in 10.0 mi NNW 11.5 mph - N/A   Overcast
3:35 PM 31.8 °F 23.3 °F 20.1 °F 62% 30.04 in 10.0 mi North 10.4 mph - N/A   Overcast
3:55 PM 31.6 °F 22.6 °F 20.5 °F 63% 30.04 in 10.0 mi North 11.5 mph - N/A   Overcast
4:15 PM 31.3 °F 21.6 °F 20.5 °F 64% 30.04 in 10.0 mi North 12.7 mph 16.1 mph N/A   Overcast
4:35 PM 31.1 °F 20.9 °F 20.3 °F 64% 30.04 in 10.0 mi North 13.8 mph - N/A   Overcast
4:55 PM 30.6 °F 21.8 °F 20.1 °F 65% 30.05 in 10.0 mi North 10.4 mph - N/A   Overcast
5:15 PM 30.6 °F 23.1 °F 20.1 °F 65% 30.06 in 10.0 mi North 8.1 mph - N/A   Overcast
5:35 PM 30.2 °F 22.6 °F 20.3 °F 67% 30.06 in 10.0 mi NNW 8.1 mph - N/A   Overcast
5:55 PM 30.2 °F 20.8 °F 20.8 °F 68% 30.07 in 10.0 mi NNW 11.5 mph - N/A   Overcast
6:15 PM 28.2 °F 16.3 °F 22.5 °F 79% 30.07 in 10.0 mi NNW 16.1 mph - N/A Snow Light Snow
6:35 PM 27.5 °F 14.6 °F 22.8 °F 83% 30.08 in 7.0 mi NNW 18.4 mph - N/A Snow Light Snow
6:55 PM 27.1 °F 12.4 °F 20.5 °F 76% 30.08 in 10.0 mi NNW 24.2 mph 27.6 mph N/A Snow Light Snow
7:15 PM 26.6 °F 13.4 °F 20.8 °F 79% 30.09 in 7.0 mi North 18.4 mph 21.9 mph N/A Snow Light Snow
7:35 PM 25.7 °F 11.9 °F 15.8 °F 66% 30.10 in 10.0 mi North 19.6 mph 28.8 mph N/A Snow Light Snow
7:55 PM 24.8 °F 10.3 °F 13.6 °F 63% 30.11 in 10.0 mi NNW 20.7 mph 29.9 mph N/A   Overcast
8:15 PM 24.6 °F 10.1 °F 13.6 °F 63% 30.11 in 10.0 mi North 20.7 mph 25.3 mph N/A   Overcast
8:35 PM 23.9 °F 8.8 °F 10.9 °F 58% 30.12 in 10.0 mi NNW 21.9 mph - N/A   Overcast
8:55 PM 22.3 °F 8.7 °F 8.6 °F 56% 30.13 in 10.0 mi NNW 16.1 mph - N/A   Overcast
9:15 PM 21.7 °F 7.1 °F 7.5 °F 54% 30.14 in 10.0 mi NNW 18.4 mph - N/A   Overcast
9:35 PM 20.7 °F 4.1 °F 6.3 °F 54% 30.14 in 10.0 mi NNW 23.0 mph - N/A   Overcast
9:55 PM 19.4 °F 4.1 °F 5.0 °F 54% 30.15 in 10.0 mi NNW 18.4 mph - N/A   Overcast
10:15 PM 18.5 °F 3.3 °F 4.6 °F 55% 30.15 in 10.0 mi North 17.3 mph 20.7 mph N/A   Mostly Cloudy
10:35 PM 17.6 °F 3.7 °F 4.6 °F 57% 30.16 in 10.0 mi North 13.8 mph 18.4 mph N/A   Scattered Clouds
10:55 PM 17.2 °F 3.3 °F 4.3 °F 57% 30.16 in 10.0 mi NNW 13.8 mph 18.4 mph N/A   Clear
11:15 PM 16.7 °F 2.6 °F 4.6 °F 59% 30.15 in 10.0 mi North 13.8 mph - N/A   Clear
11:35 PM 16.3 °F 2.1 °F 4.5 °F 60% 30.16 in 10.0 mi NNW 13.8 mph - N/A   Clear
11:55 PM 15.8 °F 2.1 °F 5.0 °F 62% 30.14 in 10.0 mi NNW 12.7 mph - N/A   Clear